Louisburg, NC

6:49 AM EDT on October 21, 2017 (GMT -0400)
Franklin County

Weather History for KLHZ - February, 2013

Change the Weather History Date:

Sunday, February 3, 2013

  Actual Average (KRDU) Record (KRDU)
Temperature  
Mean Temperature 40 °F -  
Max Temperature 46 °F 52 °F 83 °F (1989)
Min Temperature 33 °F 30 °F 7 °F (1980)
Degree Days  
Heating Degree Days 26    
Moisture  
Dew Point 28 °F    
Average Humidity 62    
Maximum Humidity 100    
Minimum Humidity 37    
Precipitation  
Precipitation 0.00 in - - ()
Sea Level Pressure  
Sea Level Pressure 29.93 in    
Wind  
Wind Speed 3 mph (West)    
Max Wind Speed 9 mph    
Max Gust Speed 16 mph    
Visibility 10 miles    
Events Rain    
Averages and records for this station are not official NWS values.
T = Trace of Precipitation, MM = Missing Value Source: NWS Daily Summary

Daily Weather History Graph

Daily Weather History Graph

Search for Another Location

Airport or City:

Trip Planner

Search our weather history database for the weather conditions in past years. The results will help you decide how hot, cold, wet, or windy it might be!

Date:

Astronomy

Feb. 03, 2013 Rise Set
Actual Time 7:12 AM EST 5:42 PM EST
Civil Twilight 6:45 AM EST 6:09 PM EST
Nautical Twilight 6:14 AM EST 6:40 PM EST
Astronomical Twilight 5:44 AM EST 7:10 PM EST
Moon 12:37 AM EST (2/3) 11:19 AM EST (2/3)
Length of Visible Light 11h 24m
Length of Day
10h 30m
Waning Gibbous, 49% of the Moon is Illuminated
Feb 3
Waning Gibbous
Feb 10
New
Feb 17
First Quarter
Feb 25
Full
Mar 4
Last Quarter

Hourly Weather History & Observations

Time (EST) Temp. Windchill Dew Point Humidity Pressure Visibility Wind Dir Wind Speed Gust Speed Precip Events Conditions
12:15 AM 41.0 °F 39.0 °F 33.8 °F 76% 30.02 in 10.0 mi SW 3.5 mph - N/A   Light Drizzle
12:35 AM 41.0 °F 38.0 °F 33.8 °F 76% 30.01 in 10.0 mi SW 4.6 mph - N/A   Overcast
12:55 AM 41.0 °F 39.0 °F 35.6 °F 81% 30.00 in 10.0 mi WSW 3.5 mph - N/A   Overcast
1:15 AM 41.0 °F - 35.6 °F 81% 29.99 in 10.0 mi Calm Calm - N/A   Overcast
1:35 AM 41.0 °F 39.0 °F 35.6 °F 81% 29.99 in 10.0 mi West 3.5 mph - N/A   Overcast
1:55 AM 41.0 °F 39.0 °F 33.8 °F 76% 29.97 in 10.0 mi WNW 3.5 mph - N/A   Overcast
2:15 AM 41.0 °F 39.0 °F 32.0 °F 70% 29.97 in 10.0 mi West 3.5 mph - N/A   Overcast
2:35 AM 41.0 °F 39.0 °F 33.8 °F 76% 29.97 in 10.0 mi West 3.5 mph - N/A   Overcast
2:55 AM 39.2 °F 37.0 °F 33.8 °F 81% 29.97 in 10.0 mi West 3.5 mph - N/A   Overcast
3:15 AM 37.4 °F - 33.8 °F 87% 29.96 in 10.0 mi Calm Calm - N/A   Mostly Cloudy
3:35 AM 37.4 °F - 33.8 °F 87% 29.95 in 10.0 mi Calm Calm - N/A   Mostly Cloudy
3:55 AM 35.6 °F - 35.6 °F 100% 29.94 in 10.0 mi Calm Calm - N/A   Scattered Clouds
4:15 AM - - - N/A% 29.94 in 10.0 mi Calm Calm - N/A   Scattered Clouds
4:35 AM - - - N/A% 29.93 in 10.0 mi Calm Calm - N/A   Mostly Cloudy
4:55 AM - - - N/A% 29.94 in 10.0 mi Calm Calm - N/A   Overcast
5:15 AM - - - N/A% 29.93 in 10.0 mi Calm Calm - N/A   Overcast
5:35 AM - - - N/A% 29.93 in 10.0 mi Calm Calm - N/A   Overcast
5:55 AM - - - N/A% 29.93 in 10.0 mi Calm Calm - N/A   Overcast
6:15 AM - - - N/A% 29.93 in 10.0 mi Calm Calm - N/A   Overcast
6:35 AM - - - N/A% 29.93 in 10.0 mi Calm Calm - N/A   Overcast
6:55 AM - - - N/A% 29.93 in 10.0 mi Calm Calm - N/A   Overcast
7:15 AM - - - N/A% 29.93 in 10.0 mi Calm Calm - N/A   Light Drizzle
7:35 AM - - - N/A% 29.94 in 10.0 mi Calm Calm - N/A Rain Light Rain
7:55 AM - - - N/A% 29.95 in 10.0 mi Calm Calm - N/A   Overcast
8:15 AM - - - N/A% 29.95 in 10.0 mi Calm Calm - N/A   Overcast
8:35 AM - - - N/A% 29.95 in 10.0 mi Calm Calm - N/A   Overcast
8:55 AM 39.2 °F 35.0 °F 35.6 °F 87% 29.95 in 10.0 mi West 5.8 mph - N/A   Mostly Cloudy
9:15 AM 41.0 °F 38.0 °F 32.0 °F 70% 29.95 in 10.0 mi WNW 4.6 mph - N/A   Mostly Cloudy
9:35 AM 41.0 °F 36.4 °F 30.2 °F 65% 29.94 in 10.0 mi WNW 6.9 mph - N/A   Scattered Clouds
9:55 AM 42.8 °F 40.1 °F 30.2 °F 61% 29.95 in 10.0 mi WNW 4.6 mph - N/A   Clear
10:15 AM 42.8 °F 39.3 °F 28.4 °F 57% 29.95 in 10.0 mi WNW 5.8 mph - N/A   Clear
10:35 AM 42.8 °F 38.6 °F 28.4 °F 57% 29.95 in 10.0 mi NW 6.9 mph - N/A   Scattered Clouds
10:55 AM 42.8 °F 40.1 °F 26.6 °F 53% 29.94 in 10.0 mi WNW 4.6 mph - N/A   Mostly Cloudy
11:15 AM 42.8 °F 38.6 °F 26.6 °F 53% 29.94 in 10.0 mi NW 6.9 mph - N/A   Scattered Clouds
11:35 AM 44.6 °F 41.4 °F 24.8 °F 46% 29.93 in 10.0 mi WNW 5.8 mph - N/A   Scattered Clouds
11:55 AM 44.6 °F 42.2 °F 24.8 °F 46% 29.92 in 10.0 mi WNW 4.6 mph - N/A   Clear
12:15 PM 44.6 °F 41.4 °F 23.0 °F 43% 29.91 in 10.0 mi WSW 5.8 mph - N/A   Scattered Clouds
12:35 PM 46.4 °F 41.9 °F 21.2 °F 37% 29.90 in 10.0 mi WSW 9.2 mph 16.1 mph N/A   Mostly Cloudy
12:55 PM 44.6 °F - 21.2 °F 39% 29.90 in 10.0 mi Calm Calm - N/A   Mostly Cloudy
1:15 PM 46.4 °F 43.5 °F 21.2 °F 37% 29.88 in 10.0 mi SW 5.8 mph - N/A   Mostly Cloudy
1:35 PM 46.4 °F 41.9 °F 21.2 °F 37% 29.87 in 10.0 mi West 9.2 mph - N/A   Mostly Cloudy
1:55 PM 46.4 °F 42.4 °F 21.2 °F 37% 29.86 in 10.0 mi SW 8.1 mph - N/A   Scattered Clouds
2:15 PM 46.4 °F 43.5 °F 23.0 °F 40% 29.86 in 10.0 mi West 5.8 mph - N/A   Scattered Clouds
2:35 PM 46.4 °F 42.9 °F 21.2 °F 37% 29.86 in 10.0 mi WSW 6.9 mph - N/A   Scattered Clouds
2:55 PM 46.4 °F 44.3 °F 23.0 °F 40% 29.85 in 10.0 mi WSW 4.6 mph - N/A   Scattered Clouds
3:15 PM 46.4 °F 42.9 °F 23.0 °F 40% 29.86 in 10.0 mi West 6.9 mph - N/A   Scattered Clouds
3:35 PM 46.4 °F 43.5 °F 23.0 °F 40% 29.86 in 10.0 mi West 5.8 mph - N/A   Mostly Cloudy
3:55 PM 44.6 °F 42.2 °F 24.8 °F 46% 29.87 in 10.0 mi WSW 4.6 mph - N/A   Overcast
4:15 PM 44.6 °F 41.4 °F 24.8 °F 46% 29.87 in 10.0 mi SW 5.8 mph - N/A   Overcast
4:35 PM 44.6 °F - 24.8 °F 46% 29.87 in 10.0 mi Calm Calm - N/A   Overcast
4:55 PM 46.4 °F 44.3 °F 26.6 °F 46% 29.87 in 10.0 mi WSW 4.6 mph - N/A   Overcast
5:15 PM 46.4 °F 42.4 °F 26.6 °F 46% 29.88 in 10.0 mi West 8.1 mph - N/A   Overcast
5:35 PM 44.6 °F 43.1 °F 26.6 °F 49% 29.89 in 10.0 mi WNW 3.5 mph - N/A   Overcast
5:55 PM 44.6 °F 43.1 °F 28.4 °F 53% 29.90 in 10.0 mi NNW 3.5 mph - N/A   Mostly Cloudy
6:15 PM 41.0 °F 39.0 °F 32.0 °F 70% 29.91 in 10.0 mi NW 3.5 mph - N/A   Mostly Cloudy
6:35 PM 41.0 °F - 32.0 °F 70% 29.92 in 10.0 mi Calm Calm - N/A   Mostly Cloudy
6:55 PM 41.0 °F - 32.0 °F 70% 29.93 in 10.0 mi Calm Calm - N/A   Mostly Cloudy
7:15 PM 39.2 °F - 32.0 °F 75% 29.94 in 10.0 mi Calm Calm - N/A   Clear
7:35 PM 37.4 °F - 32.0 °F 81% 29.94 in 10.0 mi Calm Calm - N/A   Clear
7:55 PM 37.4 °F - 30.2 °F 75% 29.94 in 10.0 mi Calm Calm - N/A   Clear
8:15 PM 37.4 °F - 30.2 °F 75% 29.95 in 10.0 mi Calm Calm - N/A   Clear
8:35 PM 35.6 °F - 30.2 °F 81% 29.95 in 10.0 mi Calm Calm - N/A   Clear
8:55 PM 35.6 °F - 28.4 °F 75% 29.96 in 10.0 mi Calm Calm - N/A   Clear
9:15 PM 35.6 °F 32.8 °F 28.4 °F 75% 29.96 in 10.0 mi WNW 3.5 mph - N/A   Clear
9:35 PM 35.6 °F 31.7 °F 26.6 °F 70% 29.97 in 10.0 mi NNW 4.6 mph - N/A   Clear
9:55 PM 35.6 °F 32.8 °F 26.6 °F 70% 29.97 in 10.0 mi NNW 3.5 mph - N/A   Clear
10:15 PM 35.6 °F 31.7 °F 24.8 °F 65% 29.97 in 10.0 mi NW 4.6 mph - N/A   Clear
10:35 PM 35.6 °F - 23.0 °F 60% 29.97 in 10.0 mi Calm Calm - N/A   Clear
10:55 PM 35.6 °F - 23.0 °F 60% 29.97 in 10.0 mi Calm Calm - N/A   Clear
11:15 PM 33.8 °F - 23.0 °F 65% 29.98 in 10.0 mi Calm Calm - N/A   Clear
11:35 PM 35.6 °F 32.8 °F 23.0 °F 60% 29.98 in 10.0 mi West 3.5 mph - N/A   Clear
11:55 PM 35.6 °F 29.9 °F 23.0 °F 60% 29.98 in 10.0 mi NW 6.9 mph - N/A   Clear